| time (UTC) | temp F | wind direction | speed knots | gust knots | rain 1hr in | rain 24hr in | rain mn in | humidity % | barometer mb |
| 20260507083435 | 43 | 92 | 2.6 | 7.0 | 0.00 | 0.24 | 0.03 | 94 | 1011.2 |
| 20260507082936 | 43 | 80 | 2.6 | 7.8 | 0.00 | 0.24 | 0.03 | 94 | 1011.1 |
| 20260507082434 | 43 | 80 | 1.7 | 7.8 | 0.00 | 0.24 | 0.03 | 94 | 1011.1 |
| 20260507081934 | 43 | 84 | 1.7 | 7.8 | 0.00 | 0.24 | 0.03 | 94 | 1011.1 |
| 20260507081435 | 43 | 88 | 1.7 | 12.2 | 0.00 | 0.24 | 0.03 | 94 | 1011.1 |
| 20260507081154 | 43 | 58 | 1.7 | 12.2 | 0.00 | 0.24 | 0.03 | 94 | 1011.0 |
| 20260507080433 | 43 | 97 | 2.6 | 7.0 | 0.00 | 0.24 | 0.03 | 94 | 1011.0 |
| 20260507080158 | 43 | 77 | 1.7 | 7.0 | 0.00 | 0.24 | 0.03 | 94 | 1011.0 |
| 20260507075434 | 43 | 308 | 1.7 | 7.0 | 0.00 | 0.24 | 0.03 | 95 | 1010.9 |
| 20260507075423 | 43 | 88 | 2.6 | 7.0 | 0.00 | 0.24 | 0.03 | 95 | 1010.9 |
| 20260507074701 | 43 | 58 | 1.7 | 7.0 | 0.00 | 0.24 | 0.03 | 95 | 1010.9 |
| 20260507073931 | 43 | 68 | 1.7 | 10.4 | 0.00 | 0.24 | 0.03 | 95 | 1010.9 |
| 20260507073426 | 43 | 90 | 1.7 | 10.4 | 0.00 | 0.24 | 0.03 | 95 | 1010.9 |
| 20260507072919 | 43 | 74 | 1.7 | 5.2 | 0.00 | 0.24 | 0.03 | 95 | 1010.8 |
| 20260507072415 | 43 | 90 | 2.6 | 8.7 | 0.00 | 0.24 | 0.03 | 95 | 1010.8 |
| 20260507071912 | 43 | 67 | 1.7 | 8.7 | 0.00 | 0.24 | 0.03 | 95 | 1010.9 |
| 20260507071409 | 43 | 331 | 1.7 | 6.1 | 0.00 | 0.24 | 0.03 | 95 | 1010.8 |
| 20260507070911 | 42 | 105 | 1.7 | 6.1 | 0.00 | 0.24 | 0.03 | 95 | 1010.7 |
| 20260507070626 | 42 | 88 | 1.7 | 6.1 | 0.01 | 0.24 | 0.03 | 95 | 1010.8 |
| 20260507065911 | 42 | 81 | 1.7 | 7.8 | 0.01 | 0.24 | 0.03 | 95 | 1010.8 |
| 20260507065412 | 42 | 56 | 1.7 | 8.7 | 0.01 | 0.24 | 0.03 | 95 | 1010.8 |
| 20260507064910 | 42 | 99 | 1.7 | 8.7 | 0.01 | 0.24 | 0.03 | 95 | 1010.8 |
| 20260507064404 | 42 | 82 | 1.7 | 7.0 | 0.01 | 0.24 | 0.03 | 95 | 1010.9 |
| 20260507063904 | 42 | 86 | 1.7 | 7.8 | 0.01 | 0.24 | 0.03 | 95 | 1010.8 |
| 20260507063400 | 42 | 49 | 1.7 | 7.8 | 0.02 | 0.24 | 0.03 | 95 | 1010.8 |
| 20260507062858 | 42 | 71 | 1.7 | 5.2 | 0.02 | 0.24 | 0.03 | 95 | 1010.9 |
| 20260507062357 | 42 | 101 | 1.7 | 5.2 | 0.02 | 0.24 | 0.03 | 95 | 1010.9 |
| 20260507061858 | 42 | 101 | 1.7 | 6.1 | 0.02 | 0.24 | 0.03 | 95 | 1010.8 |
| 20260507061618 | 42 | 71 | 1.7 | 7.0 | 0.02 | 0.24 | 0.03 | 95 | 1010.8 |
| 20260507060855 | 42 | 74 | 1.7 | 7.0 | 0.02 | 0.24 | 0.03 | 95 | 1010.9 |
| 20260507060356 | 42 | 67 | 1.7 | 6.1 | 0.02 | 0.23 | 0.02 | 95 | 1010.8 |
| 20260507055855 | 41 | 71 | 1.7 | 7.0 | 0.02 | 0.23 | 0.02 | 95 | 1010.8 |
| 20260507055840 | 41 | 84 | 0.9 | 7.0 | 0.02 | 0.23 | 0.02 | 95 | 1010.8 |
| 20260507054902 | 41 | 85 | 0.9 | 3.5 | 0.02 | 0.23 | 0.02 | 95 | 1010.9 |
| 20260507054356 | 41 | 88 | 0.9 | 3.5 | 0.02 | 0.23 | 0.02 | 95 | 1011.0 |
| 20260507053855 | 41 | 26 | 0.9 | 6.1 | 0.02 | 0.23 | 0.02 | 95 | 1011.0 |
| 20260507053355 | 41 | 119 | 0.9 | 6.1 | 0.01 | 0.22 | 0.02 | 94 | 1011.0 |
| 20260507053116 | 41 | 86 | 1.7 | 7.8 | 0.01 | 0.22 | 0.02 | 94 | 1010.9 |
| 20260507052353 | 41 | 94 | 1.7 | 7.8 | 0.01 | 0.22 | 0.02 | 94 | 1010.8 |
| 20260507051854 | 41 | 90 | 1.7 | 6.1 | 0.01 | 0.22 | 0.02 | 94 | 1010.7 |
| 20260507051355 | 41 | 73 | 1.7 | 6.1 | 0.00 | 0.21 | 0.01 | 94 | 1010.8 |
| 20260507050854 | 41 | 82 | 1.7 | 6.1 | 0.00 | 0.21 | 0.01 | 93 | 1010.8 |
| 20260507050351 | 41 | 75 | 1.7 | 6.1 | 0.00 | 0.21 | 0.01 | 93 | 1010.8 |
| 20260507045852 | 41 | 83 | 1.7 | 3.5 | 0.00 | 0.21 | 0.01 | 92 | 1010.8 |
| 20260507045351 | 41 | 69 | 1.7 | 5.2 | 0.00 | 0.21 | 0.01 | 92 | 1010.7 |
| 20260507045110 | 42 | 318 | 1.7 | 5.2 | 0.00 | 0.21 | 0.01 | 92 | 1010.7 |
| 20260507044349 | 42 | 64 | 1.7 | 7.8 | 0.00 | 0.21 | 0.01 | 92 | 1010.7 |
| 20260507043847 | 42 | 78 | 1.7 | 7.8 | 0.00 | 0.21 | 0.01 | 92 | 1010.8 |
| 20260507043348 | 42 | 59 | 1.7 | 6.1 | 0.00 | 0.21 | 0.01 | 92 | 1010.7 |
| 20260507042849 | 42 | 304 | 1.7 | 7.0 | 0.00 | 0.21 | 0.01 | 92 | 1010.6 |
| 20260507042347 | 42 | 57 | 1.7 | 7.8 | 0.00 | 0.21 | 0.01 | 92 | 1010.5 |
| 20260507041846 | 42 | 53 | 1.7 | 7.8 | 0.00 | 0.21 | 0.01 | 92 | 1010.4 |
| 20260507041345 | 42 | 43 | 1.7 | 5.2 | 0.00 | 0.21 | 0.01 | 92 | 1010.3 |
| 20260507041110 | 42 | 82 | 1.7 | 7.0 | 0.00 | 0.21 | 0.01 | 92 | 1010.5 |
| 20260507040609 | 42 | 86 | 1.7 | 8.7 | 0.00 | 0.21 | 0.01 | 92 | 1010.1 |
| 20260507035847 | 42 | 85 | 1.7 | 8.7 | 0.00 | 0.21 | 0.01 | 92 | 1010.1 |
| 20260507035602 | 42 | 86 | 1.7 | 7.0 | 0.00 | 0.21 | 0.01 | 92 | 1010.3 |
| 20260507034844 | 42 | 71 | 1.7 | 6.1 | 0.00 | 0.21 | 0.01 | 92 | 1010.2 |
| 20260507034345 | 42 | 63 | 0.9 | 6.1 | 0.00 | 0.21 | 0.01 | 92 | 1010.2 |
| 20260507033843 | 42 | 96 | 1.7 | 7.0 | 0.00 | 0.21 | 0.01 | 92 | 1010.3 |
| 20260507033344 | 42 | 310 | 1.7 | 7.0 | 0.00 | 0.21 | 0.01 | 92 | 1010.2 |
| 20260507032843 | 42 | 14 | 1.7 | 4.3 | 0.00 | 0.21 | 0.01 | 92 | 1010.0 |
| 20260507032345 | 42 | 92 | 1.7 | 7.0 | 0.01 | 0.21 | 0.01 | 92 | 1009.9 |
| 20260507031843 | 42 | 73 | 1.7 | 7.0 | 0.01 | 0.21 | 0.01 | 92 | 1009.8 |
| 20260507031341 | 42 | 107 | 1.7 | 5.2 | 0.01 | 0.21 | 0.01 | 92 | 1009.9 |
| 20260507030840 | 42 | 45 | 1.7 | 7.8 | 0.01 | 0.21 | 0.01 | 92 | 1009.9 |
| 20260507030607 | 42 | 54 | 0.9 | 7.8 | 0.01 | 0.21 | 0.01 | 92 | 1010.0 |
| 20260507025828 | 42 | 36 | 0.9 | 7.0 | 0.01 | 0.21 | 0.01 | 92 | 1010.0 |
| 20260507025324 | 41 | 19 | 0.9 | 7.0 | 0.01 | 0.21 | 0.01 | 92 | 1009.9 |
| 20260507024819 | 41 | 15 | 0.9 | 7.0 | 0.01 | 0.21 | 0.01 | 92 | 1010.0 |
| 20260507024319 | 41 | 77 | 1.7 | 7.0 | 0.01 | 0.21 | 0.01 | 92 | 1009.9 |
| 20260507023815 | 41 | 355 | 1.7 | 5.2 | 0.01 | 0.21 | 0.01 | 92 | 1010.0 |
| 20260507023315 | 41 | 15 | 1.7 | 9.6 | 0.01 | 0.21 | 0.01 | 92 | 1010.2 |
| 20260507022816 | 41 | 80 | 1.7 | 9.6 | 0.01 | 0.21 | 0.01 | 92 | 1010.1 |
| 20260507022539 | 41 | 92 | 1.7 | 7.0 | 0.00 | 0.20 | 0.00 | 92 | 1010.0 |
| 20260507021815 | 41 | 60 | 1.7 | 8.7 | 0.00 | 0.20 | 0.00 | 93 | 1009.9 |
| 20260507021309 | 41 | 45 | 1.7 | 8.7 | 0.00 | 0.20 | 0.00 | 93 | 1010.3 |
| 20260507020802 | 41 | 34 | 1.7 | 5.2 | 0.00 | 0.20 | 0.00 | 93 | 1010.3 |
| 20260507020300 | 41 | 288 | 1.7 | 5.2 | 0.00 | 0.20 | 0.00 | 93 | 1010.3 |
| 20260507015759 | 41 | 65 | 1.7 | 5.2 | 0.00 | 0.20 | 0.00 | 93 | 1010.2 |
| 20260507015258 | 41 | 333 | 1.7 | 7.0 | 0.00 | 0.20 | 0.00 | 93 | 1010.1 |
| 20260507014800 | 41 | 355 | 1.7 | 7.0 | 0.00 | 0.20 | 0.00 | 93 | 1010.2 |
| 20260507014259 | 41 | 72 | 1.7 | 4.3 | 0.00 | 0.20 | 0.00 | 93 | 1009.9 |
| 20260507014021 | 41 | 84 | 2.6 | 10.4 | 0.00 | 0.20 | 0.00 | 93 | 1010.1 |
| 20260507013301 | 41 | 62 | 3.5 | 10.4 | 0.00 | 0.20 | 0.00 | 93 | 1009.7 |
| 20260507012758 | 41 | 90 | 2.6 | 7.8 | 0.00 | 0.20 | 0.00 | 93 | 1009.6 |
| 20260507012257 | 41 | 87 | 2.6 | 7.8 | 0.00 | 0.20 | 0.00 | 93 | 1009.7 |
| 20260507011758 | 41 | 44 | 1.7 | 5.2 | 0.00 | 0.20 | 0.00 | 93 | 1009.9 |
| 20260507011257 | 41 | 342 | 0.9 | 3.5 | 0.00 | 0.20 | 0.00 | 93 | 1010.2 |
| 20260507011017 | 41 | 82 | 0.9 | 6.1 | 0.00 | 0.20 | 0.00 | 93 | 1010.2 |
| 20260507010528 | 41 | 350 | 1.7 | 6.1 | 0.00 | 0.20 | 0.00 | 93 | 1010.2 |
| 20260507005757 | 41 | 327 | 1.7 | 7.0 | 0.00 | 0.20 | 0.00 | 93 | 1010.3 |
| 20260507005257 | 41 | 322 | 1.7 | 7.0 | 0.00 | 0.20 | 0.00 | 93 | 1010.2 |
| 20260507004753 | 41 | 41 | 0.9 | 7.8 | 0.00 | 0.20 | 0.00 | 93 | 1010.1 |
| 20260507004252 | 41 | 277 | 0.9 | 7.8 | 0.00 | 0.20 | 0.00 | 93 | 1010.2 |
| 20260507003751 | 41 | 325 | 0.9 | 4.3 | 0.00 | 0.20 | 0.00 | 93 | 1010.2 |
| 20260507003247 | 41 | 321 | 0.9 | 4.3 | 0.00 | 0.20 | 0.00 | 93 | 1010.3 |
| 20260507003232 | 41 | 320 | 0.9 | 6.1 | 0.00 | 0.20 | 0.00 | 93 | 1010.4 |
| 20260507002247 | 41 | 321 | 1.7 | 6.1 | 0.00 | 0.20 | 0.00 | 93 | 1010.5 |
| 20260507001746 | 41 | 355 | 1.7 | 5.2 | 0.00 | 0.20 | 0.00 | 93 | 1010.1 |
| 20260507001246 | 41 | 89 | 0.9 | 4.3 | 0.00 | 0.20 | 0.00 | 93 | 1010.0 |
| 20260507000746 | 41 | 118 | 0.9 | 3.5 | 0.00 | 0.20 | 0.00 | 93 | 1010.0 |
| 20260507000245 | 41 | 85 | 1.7 | 6.1 | 0.00 | 0.20 | 0.00 | 93 | 1009.9 |
| 20260506235748 | 41 | 100 | 1.7 | 6.1 | 0.00 | 0.20 | 0.00 | 93 | 1010.0 |
| 20260506235245 | 41 | 84 | 0.9 | 6.1 | 0.00 | 0.20 | 0.00 | 93 | 1009.9 |
| 20260506234746 | 41 | 115 | 1.7 | 6.1 | 0.00 | 0.20 | 0.00 | 93 | 1010.0 |
| 20260506234240 | 41 | 70 | 1.7 | 6.1 | 0.00 | 0.20 | 0.00 | 93 | 1010.0 |
| 20260506234223 | 41 | 55 | 0.9 | 6.1 | 0.00 | 0.20 | 0.00 | 93 | 1010.0 |
| 20260506233242 | 41 | 84 | 0.9 | 6.1 | 0.00 | 0.20 | 0.00 | 93 | 1010.2 |
| 20260506232742 | 41 | 99 | 0.9 | 6.1 | 0.00 | 0.20 | 0.00 | 93 | 1010.1 |
| 20260506232235 | 41 | 85 | 0.9 | 3.5 | 0.00 | 0.20 | 0.00 | 93 | 1010.0 |
| 20260506231730 | 41 | 89 | 0.9 | 5.2 | 0.00 | 0.20 | 0.00 | 93 | 1010.1 |
| 20260506231240 | 41 | 298 | 0.9 | 5.2 | 0.00 | 0.20 | 0.00 | 93 | 1010.1 |
| 20260506230727 | 41 | 55 | 0.9 | 8.7 | 0.00 | 0.20 | 0.00 | 94 | 1010.2 |
| 20260506230226 | 41 | 344 | 0.9 | 8.7 | 0.00 | 0.20 | 0.00 | 94 | 1010.2 |
| 20260506225727 | 41 | 107 | 0.9 | 5.2 | 0.00 | 0.20 | 0.00 | 94 | 1010.4 |
| 20260506225453 | 41 | 85 | 1.7 | 6.1 | 0.00 | 0.20 | 0.00 | 94 | 1010.5 |
| 20260506224951 | 41 | 89 | 0.9 | 6.1 | 0.00 | 0.20 | 0.00 | 94 | 1010.6 |
| 20260506224226 | 41 | 86 | 0.9 | 6.1 | 0.00 | 0.20 | 0.00 | 94 | 1010.5 |
| 20260506223728 | 41 | 61 | 0.9 | 3.5 | 0.00 | 0.20 | 0.00 | 94 | 1010.5 |
| 20260506223225 | 41 | 67 | 1.7 | 7.0 | 0.00 | 0.20 | 0.00 | 94 | 1010.6 |
| 20260506222725 | 41 | 91 | 1.7 | 7.0 | 0.00 | 0.20 | 0.00 | 94 | 1010.7 |
| 20260506222224 | 41 | 67 | 1.7 | 5.2 | 0.00 | 0.20 | 0.00 | 94 | 1010.8 |
| 20260506221724 | 41 | 90 | 1.7 | 5.2 | 0.00 | 0.20 | 0.00 | 94 | 1010.7 |
| 20260506221223 | 41 | 105 | 1.7 | 5.2 | 0.00 | 0.20 | 0.00 | 94 | 1010.6 |
| 20260506220722 | 41 | 40 | 1.7 | 5.2 | 0.00 | 0.20 | 0.00 | 94 | 1010.5 |
| 20260506220223 | 41 | 85 | 2.6 | 7.0 | 0.00 | 0.20 | 0.00 | 94 | 1010.5 |
| 20260506215724 | 41 | 76 | 2.6 | 7.0 | 0.00 | 0.20 | 0.00 | 94 | 1010.5 |
| 20260506215223 | 41 | 78 | 1.7 | 7.0 | 0.00 | 0.20 | 0.00 | 94 | 1010.7 |
| 20260506214723 | 41 | 80 | 1.7 | 7.0 | 0.00 | 0.20 | 0.00 | 94 | 1010.8 |
| 20260506214445 | 41 | 86 | 2.6 | 5.2 | 0.00 | 0.20 | 0.00 | 94 | 1010.5 |
| 20260506213944 | 41 | 77 | 2.6 | 6.1 | 0.00 | 0.20 | 0.00 | 94 | 1010.3 |
| 20260506213218 | 42 | 89 | 2.6 | 6.1 | 0.00 | 0.20 | 0.00 | 94 | 1010.5 |
| 20260506212719 | 42 | 73 | 1.7 | 6.1 | 0.00 | 0.20 | 0.00 | 94 | 1010.6 |
| 20260506212220 | 42 | 82 | 0.9 | 3.5 | 0.00 | 0.20 | 0.00 | 94 | 1010.8 |
| 20260506211718 | 42 | 86 | 1.7 | 5.2 | 0.00 | 0.20 | 0.00 | 94 | 1010.9 |
| 20260506211218 | 42 | 42 | 1.7 | 8.7 | 0.00 | 0.20 | 0.00 | 94 | 1010.7 |
| 20260506210720 | 42 | 81 | 1.7 | 8.7 | 0.00 | 0.20 | 0.00 | 94 | 1010.7 |
| 20260506210216 | 42 | 86 | 1.7 | 8.7 | 0.00 | 0.20 | 0.00 | 94 | 1010.7 |
| 20260506205717 | 42 | 65 | 1.7 | 8.7 | 0.00 | 0.20 | 0.20 | 94 | 1010.9 |
| 20260506205215 | 42 | 82 | 2.6 | 7.8 | 0.00 | 0.20 | 0.20 | 94 | 1010.9 |
| 20260506204941 | 42 | 90 | 2.6 | 7.8 | 0.00 | 0.20 | 0.20 | 94 | 1010.7 |
| 20260506204215 | 42 | 121 | 2.6 | 11.3 | 0.00 | 0.20 | 0.20 | 94 | 1010.7 |
| 20260506203714 | 42 | 71 | 3.5 | 11.3 | 0.01 | 0.20 | 0.20 | 94 | 1010.7 |
| 20260506203214 | 42 | 103 | 3.5 | 9.6 | 0.01 | 0.20 | 0.20 | 94 | 1010.7 |
| 20260506202714 | 42 | 84 | 2.6 | 9.6 | 0.01 | 0.20 | 0.20 | 94 | 1010.6 |
| 20260506202208 | 42 | 68 | 1.7 | 8.7 | 0.01 | 0.20 | 0.20 | 95 | 1010.6 |
| 20260506201706 | 42 | 49 | 2.6 | 8.7 | 0.01 | 0.20 | 0.20 | 95 | 1010.8 |
| 20260506201207 | 42 | 82 | 1.7 | 6.1 | 0.01 | 0.20 | 0.20 | 94 | 1011.1 |
| 20260506200705 | 42 | 88 | 1.7 | 6.1 | 0.01 | 0.20 | 0.20 | 94 | 1010.8 |
| 20260506200218 | 42 | 58 | 1.7 | 5.2 | 0.01 | 0.20 | 0.20 | 94 | 1010.9 |
| 20260506195705 | 42 | 77 | 2.6 | 10.4 | 0.02 | 0.20 | 0.20 | 94 | 1011.0 |
| 20260506195201 | 42 | 50 | 1.7 | 10.4 | 0.02 | 0.20 | 0.20 | 94 | 1011.0 |
| 20260506194700 | 42 | 92 | 0.9 | 3.5 | 0.02 | 0.20 | 0.20 | 94 | 1011.1 |
| 20260506194200 | 42 | 78 | 0.9 | 6.1 | 0.02 | 0.20 | 0.20 | 94 | 1011.2 |
| 20260506193657 | 42 | 63 | 0.9 | 6.1 | 0.02 | 0.20 | 0.20 | 94 | 1011.0 |
| 20260506193415 | 42 | 99 | 0.9 | 2.6 | 0.02 | 0.20 | 0.20 | 94 | 1011.2 |
| 20260506192656 | 42 | 102 | 0.9 | 2.6 | 0.02 | 0.20 | 0.20 | 94 | 1011.3 |
| 20260506192205 | 42 | 103 | 0.9 | 2.6 | 0.02 | 0.20 | 0.20 | 94 | 1011.4 |
| 20260506191652 | 42 | 103 | 0.9 | 2.6 | 0.02 | 0.20 | 0.20 | 94 | 1011.5 |
| 20260506191151 | 42 | 90 | 0.9 | 2.6 | 0.03 | 0.20 | 0.20 | 94 | 1011.5 |
| 20260506190651 | 42 | 90 | 0.9 | 2.6 | 0.03 | 0.20 | 0.20 | 94 | 1011.5 |
| 20260506190147 | 42 | 92 | 0.9 | 5.2 | 0.03 | 0.20 | 0.20 | 94 | 1011.4 |
| 20260506185646 | 42 | 5 | 0.9 | 5.2 | 0.03 | 0.19 | 0.19 | 94 | 1011.5 |
| 20260506185055 | 42 | 76 | 0.9 | 6.1 | 0.04 | 0.19 | 0.19 | 94 | 1011.5 |
| 20260506184553 | 42 | 83 | 0.9 | 6.1 | 0.04 | 0.19 | 0.19 | 94 | 1011.4 |
| 20260506184311 | 43 | 92 | 0.9 | 5.2 | 0.05 | 0.18 | 0.18 | 95 | 1011.3 |
| 20260506183553 | 42 | 88 | 0.9 | 3.5 | 0.06 | 0.18 | 0.18 | 95 | 1011.2 |
| 20260506183053 | 43 | 84 | 0.9 | 3.5 | 0.06 | 0.18 | 0.18 | 94 | 1011.2 |
| 20260506182551 | 43 | 84 | 0.9 | 5.2 | 0.06 | 0.18 | 0.18 | 94 | 1011.3 |
| 20260506182051 | 43 | 84 | 0.9 | 5.2 | 0.07 | 0.17 | 0.17 | 94 | 1011.3 |
| 20260506181602 | 43 | 96 | 0.0 | 2.6 | 0.07 | 0.17 | 0.17 | 94 | 1011.4 |
| 20260506181049 | 43 | 96 | 0.0 | 1.7 | 0.07 | 0.17 | 0.17 | 94 | 1011.5 |
| 20260506181027 | 43 | 96 | 0.0 | 0.9 | 0.07 | 0.17 | 0.17 | 94 | 1011.5 |
| 20260506180104 | 43 | 96 | 0.0 | 1.7 | 0.07 | 0.16 | 0.17 | 94 | 1011.5 |
| 20260506175549 | 43 | 96 | 0.0 | 1.7 | 0.07 | 0.16 | 0.16 | 94 | 1011.5 |
| 20260506175049 | 43 | 96 | 0.0 | 0.0 | 0.07 | 0.15 | 0.15 | 93 | 1011.6 |
| 20260506174549 | 43 | 96 | 0.0 | 1.7 | 0.08 | 0.15 | 0.15 | 93 | 1011.6 |
| 20260506174530 | 43 | 96 | 0.0 | 1.7 | 0.07 | 0.13 | 0.13 | 93 | 1011.5 |
| 20260506173536 | 43 | 96 | 0.0 | 1.7 | 0.07 | 0.13 | 0.13 | 92 | 1011.5 |
| 20260506173039 | 43 | 96 | 0.0 | 2.6 | 0.06 | 0.12 | 0.12 | 92 | 1011.3 |
| 20260506172537 | 43 | 97 | 0.0 | 2.6 | 0.07 | 0.11 | 0.12 | 92 | 1011.3 |
| 20260506172035 | 43 | 95 | 0.0 | 2.6 | 0.06 | 0.10 | 0.10 | 92 | 1011.3 |
| 20260506171535 | 43 | 355 | 0.0 | 1.7 | 0.08 | 0.10 | 0.10 | 91 | 1011.3 |
| 20260506171033 | 43 | 355 | 0.0 | 1.7 | 0.08 | 0.09 | 0.09 | 91 | 1011.4 |
| 20260506170531 | 43 | 85 | 0.0 | 0.9 | 0.08 | 0.09 | 0.09 | 90 | 1011.4 |
| 20260506170031 | 44 | 85 | 0.0 | 2.6 | 0.07 | 0.09 | 0.09 | 90 | 1011.4 |
| 20260506165531 | 44 | 85 | 0.9 | 3.5 | 0.08 | 0.09 | 0.09 | 89 | 1011.5 |
| 20260506165033 | 44 | 85 | 0.9 | 3.5 | 0.07 | 0.08 | 0.08 | 88 | 1011.6 |
| 20260506164531 | 44 | 73 | 1.7 | 7.0 | 0.07 | 0.07 | 0.07 | 88 | 1011.6 |
| 20260506164031 | 44 | 69 | 2.6 | 7.0 | 0.06 | 0.06 | 0.07 | 86 | 1011.7 |
| 20260506163530 | 45 | 51 | 2.6 | 6.1 | 0.06 | 0.06 | 0.06 | 85 | 1011.8 |
| 20260506163257 | 45 | 56 | 3.5 | 7.8 | 0.05 | 0.05 | 0.06 | 84 | 1011.9 |
| 20260506162529 | 46 | 86 | 2.6 | 7.8 | 0.04 | 0.04 | 0.04 | 83 | 1011.9 |
| 20260506162307 | 46 | 88 | 2.6 | 7.0 | 0.03 | 0.03 | 0.04 | 81 | 1012.1 |
| 20260506161525 | 47 | 84 | 2.6 | 7.8 | 0.02 | 0.02 | 0.02 | 79 | 1012.1 |
| 20260506161038 | 47 | 123 | 2.6 | 7.8 | 0.02 | 0.02 | 0.02 | 78 | 1012.0 |
| 20260506160525 | 47 | 93 | 0.9 | 6.1 | 0.02 | 0.02 | 0.02 | 77 | 1012.0 |
| 20260506160039 | 47 | 65 | 0.9 | 5.2 | 0.02 | 0.02 | 0.02 | 77 | 1011.8 |
| 20260506155525 | 48 | 65 | 0.9 | 7.8 | 0.01 | 0.01 | 0.02 | 74 | 1011.9 |
| 20260506155025 | 48 | 78 | 2.6 | 7.8 | 0.01 | 0.01 | 0.01 | 73 | 1011.7 |
| 20260506155011 | 49 | 61 | 2.6 | 9.6 | 0.00 | 0.00 | 0.01 | 71 | 1011.5 |
| 20260506154021 | 49 | 57 | 1.7 | 9.6 | 0.00 | 0.00 | 0.00 | 69 | 1011.1 |
| 20260506153745 | 49 | 98 | 1.7 | 7.0 | 0.00 | 0.00 | 0.00 | 68 | 1011.1 |
| 20260506153020 | 50 | 88 | 2.6 | 7.0 | 0.00 | 0.00 | 0.00 | 66 | 1011.2 |
| 20260506152521 | 51 | 76 | 3.5 | 7.8 | 0.00 | 0.00 | 0.00 | 61 | 1011.4 |
| 20260506152022 | 51 | 81 | 4.3 | 11.3 | 0.00 | 0.00 | 0.00 | 63 | 1011.4 |
| 20260506151521 | 51 | 49 | 3.5 | 11.3 | 0.00 | 0.00 | 0.00 | 59 | 1011.3 |
| 20260506151021 | 51 | 94 | 4.3 | 14.8 | 0.00 | 0.00 | 0.00 | 60 | 1011.3 |
| 20260506150521 | 52 | 186 | 4.3 | 14.8 | 0.00 | 0.00 | 0.00 | 54 | 1011.2 |
| 20260506150021 | 53 | 59 | 2.6 | 11.3 | 0.00 | 0.00 | 0.00 | 51 | 1011.0 |
| 20260506145518 | 54 | 131 | 0.9 | 3.5 | 0.00 | 0.00 | 0.00 | 49 | 1010.9 |
| 20260506145014 | 54 | 92 | 0.9 | 4.3 | 0.00 | 0.00 | 0.00 | 46 | 1010.6 |
| 20260506144515 | 54 | 96 | 0.9 | 4.3 | 0.00 | 0.00 | 0.00 | 47 | 1010.5 |
| 20260506144016 | 54 | 77 | 0.9 | 7.0 | 0.00 | 0.00 | 0.00 | 46 | 1010.3 |
| 20260506143514 | 54 | 88 | 1.7 | 7.0 | 0.00 | 0.00 | 0.00 | 45 | 1010.2 |
| 20260506143239 | 54 | 89 | 1.7 | 5.2 | 0.00 | 0.00 | 0.00 | 45 | 1010.4 |
| 20260506142740 | 54 | 90 | 1.7 | 5.2 | 0.00 | 0.00 | 0.00 | 45 | 1010.4 |
| 20260506142016 | 55 | 74 | 1.7 | 4.3 | 0.00 | 0.00 | 0.00 | 46 | 1010.6 |
| 20260506141514 | 55 | 74 | 1.7 | 7.0 | 0.00 | 0.00 | 0.00 | 44 | 1010.7 |
| 20260506141015 | 55 | 79 | 0.9 | 7.0 | 0.00 | 0.00 | 0.00 | 44 | 1010.8 |
| 20260506140510 | 55 | 78 | 1.7 | 7.0 | 0.00 | 0.00 | 0.00 | 46 | 1010.7 |
| 20260506140010 | 55 | 73 | 1.7 | 7.8 | 0.00 | 0.00 | 0.00 | 43 | 1010.6 |
| 20260506135509 | 55 | 93 | 1.7 | 7.8 | 0.00 | 0.00 | 0.00 | 46 | 1010.8 |
| 20260506135009 | 55 | 76 | 1.7 | 6.1 | 0.00 | 0.00 | 0.00 | 43 | 1010.9 |
| 20260506134510 | 55 | 84 | 1.7 | 6.1 | 0.00 | 0.00 | 0.00 | 43 | 1010.9 |
| 20260506134006 | 55 | 98 | 1.7 | 6.1 | 0.00 | 0.00 | 0.00 | 44 | 1011.1 |
| 20260506133507 | 55 | 67 | 0.9 | 6.1 | 0.00 | 0.00 | 0.00 | 44 | 1011.1 |
| 20260506133006 | 55 | 78 | 0.9 | 6.1 | 0.00 | 0.00 | 0.00 | 43 | 1011.2 |
| 20260506132818 | 55 | 36 | 0.9 | 5.2 | 0.00 | 0.00 | 0.00 | 44 | 1011.0 |
| 20260506132711 | 55 | 61 | 1.7 | 5.2 | 0.00 | 0.00 | 0.00 | 41 | 1011.2 |
| 20260506131506 | 55 | 68 | 1.7 | 7.0 | 0.00 | 0.00 | 0.00 | 43 | 1011.0 |
| 20260506131017 | 56 | 88 | 2.6 | 7.0 | 0.00 | 0.00 | 0.00 | 44 | 1011.3 |
| 20260506130503 | 56 | 74 | 1.7 | 4.3 | 0.00 | 0.00 | 0.00 | 44 | 1011.6 |
| 20260506130003 | 56 | 92 | 1.7 | 5.2 | 0.00 | 0.00 | 0.00 | 44 | 1011.6 |
| 20260506125505 | 56 | 19 | 1.7 | 5.2 | 0.00 | 0.00 | 0.00 | 44 | 1011.8 |
| 20260506125002 | 56 | 49 | 0.9 | 4.3 | 0.00 | 0.00 | 0.00 | 43 | 1011.9 |
| 20260506124503 | 56 | 42 | 1.7 | 6.1 | 0.00 | 0.00 | 0.00 | 42 | 1011.9 |
| 20260506124002 | 56 | 52 | 2.6 | 8.7 | 0.00 | 0.00 | 0.00 | 44 | 1012.0 |
| 20260506123504 | 56 | 82 | 2.6 | 8.7 | 0.00 | 0.00 | 0.00 | 45 | 1012.2 |
| 20260506123002 | 56 | 42 | 1.7 | 7.0 | 0.00 | 0.00 | 0.00 | 46 | 1012.3 |
| 20260506122502 | 56 | 330 | 2.6 | 7.0 | 0.00 | 0.00 | 0.00 | 41 | 1012.4 |
| 20260506122004 | 57 | 340 | 1.7 | 7.0 | 0.00 | 0.00 | 0.00 | 40 | 1012.2 |
| 20260506121504 | 58 | 55 | 1.7 | 6.1 | 0.00 | 0.00 | 0.00 | 43 | 1012.3 |
| 20260506121002 | 58 | 59 | 1.7 | 7.0 | 0.00 | 0.00 | 0.00 | 45 | 1012.3 |
| 20260506120456 | 57 | 336 | 1.7 | 7.0 | 0.00 | 0.00 | 0.00 | 44 | 1012.4 |
| 20260506115956 | 58 | 111 | 2.6 | 8.7 | 0.00 | 0.00 | 0.00 | 42 | 1012.3 |
| 20260506115458 | 57 | 351 | 2.6 | 9.6 | 0.00 | 0.00 | 0.00 | 42 | 1012.3 |
| 20260506115217 | 57 | 61 | 2.6 | 9.6 | 0.00 | 0.00 | 0.00 | 44 | 1012.3 |
| 20260506114458 | 58 | 22 | 2.6 | 5.2 | 0.00 | 0.00 | 0.00 | 50 | 1012.2 |
| 20260506113954 | 58 | 80 | 2.6 | 8.7 | 0.00 | 0.00 | 0.00 | 47 | 1012.3 |
| 20260506113944 | 58 | 5 | 2.6 | 8.7 | 0.00 | 0.00 | 0.00 | 46 | 1012.1 |
| 20260506112952 | 57 | 58 | 1.7 | 7.0 | 0.00 | 0.00 | 0.00 | 43 | 1012.0 |
| 20260506112451 | 58 | 95 | 2.6 | 7.8 | 0.00 | 0.00 | 0.00 | 44 | 1012.2 |
| 20260506111949 | 57 | 65 | 2.6 | 8.7 | 0.00 | 0.00 | 0.00 | 41 | 1012.1 |
| 20260506111449 | 58 | 348 | 2.6 | 8.7 | 0.00 | 0.00 | 0.00 | 48 | 1012.0 |
| 20260506111210 | 57 | 69 | 2.6 | 7.0 | 0.00 | 0.00 | 0.00 | 47 | 1012.1 |
| 20260506110448 | 56 | 59 | 4.3 | 7.8 | 0.00 | 0.00 | 0.00 | 47 | 1012.1 |
| 20260506110441 | 56 | 86 | 4.3 | 11.3 | 0.00 | 0.00 | 0.00 | 45 | 1011.9 |
| 20260506105449 | 57 | 51 | 3.5 | 11.3 | 0.00 | 0.00 | 0.00 | 44 | 1012.0 |
| 20260506104948 | 57 | 57 | 3.5 | 8.7 | 0.00 | 0.00 | 0.00 | 43 | 1011.9 |
| 20260506104449 | 56 | 146 | 2.6 | 8.7 | 0.00 | 0.00 | 0.00 | 46 | 1012.1 |
| 20260506103948 | 57 | 54 | 1.7 | 7.8 | 0.00 | 0.00 | 0.00 | 51 | 1012.0 |
| 20260506103448 | 55 | 327 | 2.6 | 9.6 | 0.00 | 0.00 | 0.00 | 44 | 1012.1 |
| 20260506102950 | 56 | 102 | 4.3 | 9.6 | 0.00 | 0.00 | 0.00 | 46 | 1012.2 |
| 20260506102448 | 56 | 27 | 6.1 | 11.3 | 0.00 | 0.00 | 0.00 | 46 | 1012.0 |
| 20260506102211 | 56 | 331 | 4.3 | 11.3 | 0.00 | 0.00 | 0.00 | 47 | 1012.2 |
| 20260506101450 | 56 | 322 | 2.6 | 8.7 | 0.00 | 0.00 | 0.00 | 43 | 1012.3 |
| 20260506100947 | 56 | 55 | 6.1 | 12.2 | 0.00 | 0.00 | 0.00 | 44 | 1012.4 |
| 20260506100442 | 56 | 15 | 5.2 | 12.2 | 0.00 | 0.00 | 0.00 | 48 | 1012.4 |
| 20260506095942 | 56 | 333 | 3.5 | 8.7 | 0.00 | 0.00 | 0.00 | 48 | 1012.4 |
| 20260506095439 | 55 | 304 | 3.5 | 10.4 | 0.00 | 0.00 | 0.00 | 43 | 1012.4 |
| 20260506095419 | 55 | 77 | 4.3 | 10.4 | 0.00 | 0.00 | 0.00 | 43 | 1012.5 |
| 20260506094437 | 55 | 279 | 4.3 | 13.0 | 0.00 | 0.00 | 0.00 | 44 | 1012.5 |
| 20260506093936 | 54 | 82 | 4.3 | 13.0 | 0.00 | 0.00 | 0.00 | 44 | 1012.6 |
| 20260506093436 | 54 | 337 | 3.5 | 10.4 | 0.00 | 0.00 | 0.00 | 45 | 1012.6 |
| 20260506092936 | 55 | 19 | 3.5 | 10.4 | 0.00 | 0.00 | 0.00 | 46 | 1012.8 |
| 20260506092437 | 55 | 324 | 2.6 | 9.6 | 0.00 | 0.00 | 0.00 | 46 | 1012.8 |
| 20260506091932 | 55 | 330 | 2.6 | 9.6 | 0.00 | 0.00 | 0.00 | 44 | 1012.8 |
| 20260506091432 | 54 | 57 | 2.6 | 9.6 | 0.00 | 0.00 | 0.00 | 44 | 1013.0 |
| 20260506090931 | 54 | 23 | 4.3 | 10.4 | 0.00 | 0.00 | 0.00 | 48 | 1013.0 |
| 20260506090653 | 54 | 9 | 3.5 | 10.4 | 0.00 | 0.00 | 0.00 | 46 | 1013.0 |
| 20260506085931 | 53 | 342 | 2.6 | 8.7 | 0.00 | 0.00 | 0.00 | 48 | 1013.2 |
| 20260506085653 | 53 | 89 | 2.6 | 8.7 | 0.00 | 0.00 | 0.00 | 50 | 1013.0 |
| 20260506084931 | 53 | 321 | 2.6 | 7.8 | 0.00 | 0.00 | 0.00 | 47 | 1013.1 |
| 20260506084432 | 53 | 324 | 2.6 | 7.8 | 0.00 | 0.00 | 0.00 | 49 | 1013.0 |
| 20260506083930 | 53 | 323 | 2.6 | 8.7 | 0.00 | 0.00 | 0.00 | 49 | 1013.1 |